Location: Sumpter
(44.7457°N, 118.2022°W)
Time: 11:07:34
(UTC-08:00)

Tiangong 2 - Visible Passes

Search period start: 16 February 2019 00:00
Search period end: 26 February 2019 00:00
Orbit: 381 x 390 km, 42.8° (Epoch: 16 February)

Date Brightness Start Highest point End Pass type
(mag) Time Alt. Az. Time Alt. Az. Time Alt. Az.
16 Feb 1.7 18:37:44 10° W 18:40:48 48° S 18:42:14 26° SE visible
17 Feb 2.8 19:15:25 10° W 19:18:06 26° SSW 19:18:13 26° SSW visible
18 Feb 2.3 18:16:03 10° W 18:19:01 36° SSW 18:21:56 10° SE visible
19 Feb 3.6 18:54:02 10° WSW 18:56:12 17° SSW 18:58:10 11° SSE visible
20 Feb 3.1 17:54:26 10° W 17:57:08 25° SSW 17:59:49 10° SE visible
21 Feb 4.2 18:33:25 10° SW 18:34:11 11° SSW 18:34:57 10° SSW visible
